Huntington, WV

10:54 AM EDT on June 22, 2017 (GMT -0400)
Tri-State / Ferguson

Weather History for KHTS - December, 2011

Change the Weather History Date:

Tuesday, December 27, 2011

  Actual Average Record
Temperature  
Mean Temperature 41 °F 35 °F  
Max Temperature 46 °F 43 °F 74 °F (2015)
Min Temperature 36 °F 26 °F 1 °F (1892)
Degree Days  
Heating Degree Days 24 30  
Month to date heating degree days 616 746  
Since 1 July heating degree days 1431 1633  
Cooling Degree Days 0 0  
Month to date cooling degree days 0 0  
Year to date cooling degree days 1242 1134  
Moisture  
Dew Point 36 °F    
Average Humidity 82    
Maximum Humidity 100    
Minimum Humidity 64    
Precipitation  
Precipitation 1.15 in 0.10 in 1.15 in (2011)
Month to date precipitation 3.32 2.91  
Year to date precipitation 62.45 42.19  
Snow  
Snow T in - - ()
Month to date snowfall T  
Since 1 September snowfall T  
Snow Depth 0.00 in    
Sea Level Pressure  
Sea Level Pressure 29.67 in    
Wind  
Wind Speed 8 mph (SSW)    
Max Wind Speed 24 mph    
Max Gust Speed 35 mph    
Visibility 7 miles    
Events Rain    
T = Trace of Precipitation, MM = Missing Value Source: NWS Daily Summary

Daily Weather History Graph

Daily Weather History Graph

Search for Another Location

Airport or City:

Trip Planner

Search our weather history database for the weather conditions in past years. The results will help you decide how hot, cold, wet, or windy it might be!

Date:

Astronomy

Dec. 27, 2011 Rise Set
Actual Time 7:46 AM EST 5:16 PM EST
Civil Twilight 7:16 AM EST 5:46 PM EST
Nautical Twilight 6:43 AM EST 6:19 PM EST
Astronomical Twilight 6:10 AM EST 6:51 PM EST
Moon 9:43 AM EST (12/27) 8:46 PM EST (12/27)
Length of Visible Light 10h 29m
Length of Day
9h 30m
Waxing Crescent, 11% of the Moon is Illuminated
Dec 27
Waxing Crescent
Jan 1
First Quarter
Jan 9
Full
Jan 16
Last Quarter
Jan 23
New

Hourly Weather History & Observations

Time (EST) Temp. Windchill Dew Point Humidity Pressure Visibility Wind Dir Wind Speed Gust Speed Precip Events Conditions
12:51 AM 37.9 °F - 28.9 °F 70% 29.92 in 10.0 mi Calm Calm - N/A   Clear
1:51 AM 37.4 °F 33.8 °F 30.2 °F 75% 29.90 in 10.0 mi Variable 4.6 mph - N/A   Scattered Clouds
2:51 AM 37.9 °F - 28.9 °F 70% 29.90 in 10.0 mi Calm Calm - N/A   Scattered Clouds
3:51 AM 37.9 °F 34.4 °F 30.0 °F 73% 29.86 in 10.0 mi East 4.6 mph - N/A   Overcast
4:51 AM 37.9 °F 35.5 °F 32.0 °F 79% 29.83 in 8.0 mi SE 3.5 mph - 0.02 in Rain Light Rain
5:51 AM 36.0 °F - 35.1 °F 97% 29.82 in 3.0 mi Calm Calm - 0.20 in Rain Rain
6:51 AM 37.0 °F - 37.0 °F 100% 29.81 in 2.5 mi Calm Calm - 0.22 in Rain Rain
7:51 AM 37.9 °F 32.1 °F 37.0 °F 97% 29.72 in 2.5 mi ESE 8.1 mph - 0.19 in Rain Heavy Rain
8:51 AM 39.0 °F 34.0 °F 37.9 °F 96% 29.67 in 2.5 mi ESE 6.9 mph - 0.17 in Rain Rain
8:58 AM 39.2 °F 34.2 °F 37.4 °F 93% 29.66 in 3.0 mi East 6.9 mph - 0.02 in Rain Light Rain
9:51 AM 39.0 °F 34.0 °F 37.9 °F 96% 29.61 in 3.0 mi East 6.9 mph - 0.12 in Rain Rain
9:58 AM 39.2 °F 34.2 °F 37.4 °F 93% 29.59 in 3.0 mi ESE 6.9 mph - N/A Rain Light Rain
10:51 AM 39.0 °F 34.0 °F 39.0 °F 100% 29.53 in 3.0 mi ESE 6.9 mph - 0.09 in Rain Light Rain
11:08 AM 39.2 °F - 39.2 °F 100% 29.51 in 3.0 mi Calm Calm - 0.01 in Rain Light Rain
11:51 AM 39.9 °F 36.7 °F 39.9 °F 100% 29.49 in 3.0 mi South 4.6 mph - 0.09 in Rain Rain
12:19 PM 41.0 °F 37.1 °F 39.2 °F 93% 29.47 in 5.0 mi South 5.8 mph - 0.02 in Rain Light Rain
12:51 PM 43.0 °F 37.2 °F 41.0 °F 93% 29.47 in 5.0 mi SSW 10.4 mph - 0.03 in Rain Light Rain
1:25 PM 44.6 °F 39.2 °F 42.8 °F 93% 29.45 in 10.0 mi SW 10.4 mph 18.4 mph 0.00 in   Overcast
1:51 PM 45.0 °F 39.7 °F 42.1 °F 90% 29.46 in 10.0 mi SW 10.4 mph 19.6 mph 0.00 in Rain Light Rain
2:51 PM 45.0 °F 38.2 °F 39.0 °F 80% 29.47 in 10.0 mi WSW 15.0 mph 27.6 mph 0.00 in Rain Light Rain
3:51 PM 42.1 °F 33.9 °F 37.0 °F 82% 29.54 in 10.0 mi West 17.3 mph 29.9 mph 0.01 in Rain Light Rain
4:31 PM 41.0 °F 33.1 °F 35.6 °F 81% 29.57 in 10.0 mi West 15.0 mph 29.9 mph 0.00 in Rain Light Rain
4:51 PM 39.9 °F 31.8 °F 35.1 °F 83% 29.60 in 10.0 mi WSW 15.0 mph 25.3 mph 0.00 in Rain Light Rain
5:02 PM 39.2 °F 30.8 °F 35.6 °F 87% 29.60 in 10.0 mi WSW 15.0 mph 25.3 mph 0.00 in Rain Light Rain
5:10 PM 39.2 °F 30.5 °F 35.6 °F 87% 29.61 in 10.0 mi WSW 16.1 mph 28.8 mph 0.00 in Rain Light Rain
5:51 PM 37.9 °F 30.0 °F 33.1 °F 83% 29.66 in 10.0 mi West 12.7 mph 28.8 mph 0.00 in Rain Light Rain
6:51 PM 36.0 °F 26.3 °F 33.1 °F 89% 29.71 in 10.0 mi WSW 16.1 mph 23.0 mph 0.00 in Rain Light Rain
7:51 PM 36.0 °F 27.5 °F 33.1 °F 89% 29.74 in 10.0 mi WSW 12.7 mph 21.9 mph 0.00 in Rain Light Rain
8:51 PM 36.0 °F 28.0 °F 33.1 °F 89% 29.76 in 10.0 mi WSW 11.5 mph 18.4 mph 0.01 in Rain Light Rain
9:51 PM 35.6 °F 28.6 °F 33.8 °F 93% 29.77 in 10.0 mi West 9.2 mph 18.4 mph N/A Rain Light Rain
10:51 PM 36.0 °F 29.0 °F 33.1 °F 89% 29.80 in 10.0 mi WSW 9.2 mph 18.4 mph 0.00 in Rain Light Rain
11:51 PM 37.0 °F 28.9 °F 34.0 °F 89% 29.80 in 10.0 mi WSW 12.7 mph 18.4 mph 0.00 in Rain Light Rain